LNNPO ENKJ-ENSI

Flight info

Callsign LNNPO
Flight time 0h 12m
Altitude 4000
Route ENKJ/ENSI
Aircraft C172/L-SFG/C

Departure

Time 2026-05-06 15:30
Airport Lillestrøm Airfield, Kjeller (ENKJ)

Arrival

Time 2026-05-06 15:42
Airport Ski Airfield (ENSI)
Time Latitude Longitude Altitude Speed Heading
2026-05-06 15:24 59.96795 11.04937 363 ft 0 kts 240°
2026-05-06 15:26 59.96789 11.04917 363 ft 5 kts 237°
2026-05-06 15:27 59.96755 11.04813 363 ft 7 kts 238°
2026-05-06 15:27 59.96742 11.04770 363 ft 1 kts 239°
2026-05-06 15:27 59.96741 11.04766 363 ft 0 kts 238°
2026-05-06 15:27 59.96738 11.04755 363 ft 4 kts 242°
2026-05-06 15:28 59.96717 11.04649 363 ft 11 kts 281°
2026-05-06 15:28 59.96728 11.04610 362 ft 0 kts 302°
2026-05-06 15:28 59.96731 11.04603 362 ft 6 kts 301°
2026-05-06 15:29 59.96870 11.04171 359 ft 62 kts 302°
2026-05-06 15:29 59.97122 11.03374 537 ft 64 kts 290°
2026-05-06 15:29 59.97394 11.02616 710 ft 69 kts 302°
2026-05-06 15:29 59.97692 11.01854 891 ft 71 kts 299°
2026-05-06 15:30 59.97986 11.01079 1085 ft 70 kts 298°
2026-05-06 15:30 59.98253 11.00271 1275 ft 70 kts 293°
2026-05-06 15:30 59.98513 10.99441 1466 ft 70 kts 290°
2026-05-06 15:30 59.98507 10.98546 1596 ft 70 kts 229°
2026-05-06 15:31 59.98192 10.97680 1650 ft 85 kts 226°
2026-05-06 15:31 59.97802 10.96728 1784 ft 88 kts 228°
2026-05-06 15:31 59.97412 10.95742 1873 ft 93 kts 227°
2026-05-06 15:32 59.96521 10.93711 1958 ft 103 kts 225°
2026-05-06 15:32 59.95968 10.92794 1981 ft 105 kts 210°
2026-05-06 15:32 59.95304 10.92111 1962 ft 108 kts 204°
2026-05-06 15:32 59.94587 10.91618 1938 ft 109 kts 194°
2026-05-06 15:33 59.93851 10.91277 1898 ft 110 kts 190°
2026-05-06 15:33 59.93086 10.91035 1895 ft 108 kts 191°
2026-05-06 15:33 59.92357 10.90770 1894 ft 106 kts 191°
2026-05-06 15:33 59.91614 10.90517 1844 ft 109 kts 190°
2026-05-06 15:34 59.90872 10.90274 1860 ft 106 kts 190°
2026-05-06 15:34 59.90141 10.90051 1838 ft 108 kts 186°
2026-05-06 15:34 59.89392 10.89988 1845 ft 107 kts 181°
2026-05-06 15:34 59.88637 10.90049 1816 ft 109 kts 176°
2026-05-06 15:35 59.87884 10.90098 1829 ft 107 kts 182°
2026-05-06 15:35 59.87134 10.90026 1836 ft 106 kts 183°
2026-05-06 15:35 59.86393 10.89936 1824 ft 107 kts 185°
2026-05-06 15:35 59.85648 10.89846 1805 ft 109 kts 184°
2026-05-06 15:36 59.84899 10.89752 1812 ft 108 kts 185°
2026-05-06 15:36 59.84138 10.89625 1804 ft 109 kts 188°
2026-05-06 15:36 59.83403 10.89429 1826 ft 107 kts 188°
2026-05-06 15:36 59.82657 10.89211 1808 ft 108 kts 189°
2026-05-06 15:37 59.81900 10.89064 1795 ft 109 kts 184°
2026-05-06 15:37 59.81144 10.88955 1783 ft 109 kts 186°
2026-05-06 15:37 59.80393 10.88819 1795 ft 107 kts 186°
2026-05-06 15:37 59.79654 10.88665 1796 ft 108 kts 186°
2026-05-06 15:38 59.78902 10.88552 1791 ft 108 kts 184°
2026-05-06 15:38 59.78142 10.88644 1778 ft 108 kts 174°
2026-05-06 15:38 59.77423 10.88789 1730 ft 100 kts 181°
2026-05-06 15:38 59.76732 10.88856 1608 ft 100 kts 178°
2026-05-06 15:39 59.76037 10.88925 1496 ft 97 kts 180°
2026-05-06 15:39 59.75381 10.88954 1359 ft 92 kts 181°
2026-05-06 15:39 59.74745 10.88933 1221 ft 89 kts 183°
2026-05-06 15:39 59.74155 10.88892 1129 ft 81 kts 183°
2026-05-06 15:40 59.73622 10.88869 1077 ft 65 kts 184°
2026-05-06 15:40 59.73195 10.88831 1016 ft 60 kts 183°
2026-05-06 15:40 59.72787 10.88762 946 ft 58 kts 185°
2026-05-06 15:40 59.72390 10.88675 877 ft 57 kts 186°
2026-05-06 15:41 59.71997 10.88552 788 ft 58 kts 187°
2026-05-06 15:41 59.71593 10.88429 654 ft 60 kts 187°
2026-05-06 15:41 59.71191 10.88313 506 ft 57 kts 186°
2026-05-06 15:41 59.70809 10.88202 387 ft 50 kts 186°
2026-05-06 15:42 59.70616 10.88146 383 ft 12 kts 190°
2026-05-06 15:42 59.70567 10.88124 381 ft 3 kts 212°
2026-05-06 15:42 59.70566 10.88134 381 ft 3 kts
2026-05-06 15:42 59.70648 10.88155 384 ft 18 kts
2026-05-06 15:43 59.70783 10.88199 386 ft 16 kts
2026-05-06 15:43 59.70868 10.88222 388 ft 10 kts 12°
2026-05-06 15:43 59.70927 10.88254 389 ft 4 kts 346°
2026-05-06 15:43 59.70924 10.88234 388 ft 0 kts 188°
2026-05-06 15:44 59.70896 10.88226 388 ft 22 kts 188°
2026-05-06 15:44 59.70578 10.88133 405 ft 63 kts 191°
2026-05-06 15:44 59.70132 10.88198 571 ft 68 kts 143°
2026-05-06 15:44 59.69872 10.89010 726 ft 74 kts 113°
2026-05-06 15:45 59.69707 10.90034 878 ft 82 kts 104°
2026-05-06 15:45 59.69596 10.91192 1032 ft 90 kts 101°
2026-05-06 15:45 59.69497 10.92417 1212 ft 92 kts 100°
2026-05-06 15:45 59.69442 10.93699 1403 ft 93 kts 96°
2026-05-06 15:46 59.69411 10.94985 1602 ft 93 kts 97°
2026-05-06 15:46 59.69299 10.96249 1794 ft 93 kts 107°
2026-05-06 15:46 59.69117 10.97465 1922 ft 97 kts 122°
2026-05-06 15:46 59.68660 10.98557 1964 ft 106 kts 136°
2026-05-06 15:47 59.68156 10.99624 1953 ft 107 kts 137°
2026-05-06 15:47 59.67624 11.00680 1951 ft 107 kts 139°
2026-05-06 15:47 59.67075 11.01644 1956 ft 106 kts 143°
2026-05-06 15:47 59.66478 11.02532 1946 ft 106 kts 148°
2026-05-06 15:48 59.65858 11.03327 1948 ft 106 kts 151°
2026-05-06 15:48 59.65214 11.04049 1920 ft 107 kts 155°
2026-05-06 15:48 59.64555 11.04723 1898 ft 107 kts 157°
2026-05-06 15:48 59.63877 11.05330 1879 ft 106 kts 160°
2026-05-06 15:49 59.63201 11.05906 1856 ft 107 kts 159°
2026-05-06 15:49 59.62528 11.06561 1860 ft 106 kts 154°
2026-05-06 15:49 59.61950 11.07482 1843 ft 109 kts 133°
2026-05-06 15:49 59.61483 11.08611 1870 ft 107 kts 134°
2026-05-06 15:50 59.60945 11.09549 1910 ft 101 kts 156°
2026-05-06 15:50 59.60257 11.09769 1857 ft 102 kts 189°
2026-05-06 15:50 59.59608 11.09192 1798 ft 105 kts 218°
2026-05-06 15:50 59.59220 11.07993 1790 ft 105 kts 251°
2026-05-06 15:51 59.59289 11.06539 1774 ft 109 kts 289°
2026-05-06 15:51 59.59790 11.05425 1748 ft 114 kts 322°
2026-05-06 15:51 59.60481 11.04646 1716 ft 113 kts 313°
2026-05-06 15:51 59.60843 11.03341 1690 ft 108 kts 274°
2026-05-06 15:52 59.60692 11.01952 1658 ft 104 kts 236°
2026-05-06 15:52 59.60135 11.01043 1639 ft 104 kts 200°
2026-05-06 15:52 59.59436 11.01016 1618 ft 106 kts 162°
2026-05-06 15:52 59.58896 11.02051 1586 ft 111 kts 118°
2026-05-06 15:53 59.58755 11.03543 1576 ft 113 kts 96°
2026-05-06 15:53 59.58743 11.05096 1592 ft 111 kts 95°
2026-05-06 15:53 59.58652 11.06572 1623 ft 108 kts 104°
2026-05-06 15:53 59.58539 11.08061 1629 ft 110 kts 98°
2026-05-06 15:54 59.58581 11.09576 1603 ft 116 kts 76°
2026-05-06 15:54 59.59010 11.10935 1592 ft 118 kts 39°
2026-05-06 15:54 59.59724 11.11713 1604 ft 116 kts 24°
2026-05-06 15:54 59.60433 11.12430 1603 ft 117 kts 30°
2026-05-06 15:55 59.61055 11.13481 1594 ft 116 kts 49°
2026-05-06 15:55 59.61563 11.14720 1607 ft 115 kts 51°
2026-05-06 15:55 59.62091 11.15918 1617 ft 116 kts 47°
2026-05-06 15:55 59.62650 11.17072 1609 ft 117 kts 45°
2026-05-06 15:56 59.63227 11.18211 1629 ft 116 kts 44°
2026-05-06 15:56 59.63784 11.19351 1644 ft 115 kts 49°
2026-05-06 15:56 59.64249 11.20637 1630 ft 116 kts 62°
2026-05-06 15:56 59.64539 11.22116 1617 ft 115 kts 78°
2026-05-06 15:57 59.64714 11.23651 1624 ft 114 kts 80°
2026-05-06 15:57 59.64874 11.25192 1617 ft 114 kts 79°
2026-05-06 15:57 59.65111 11.26698 1610 ft 116 kts 69°
2026-05-06 15:57 59.65486 11.28122 1630 ft 115 kts 56°
2026-05-06 15:58 59.66031 11.29285 1604 ft 119 kts 38°
2026-05-06 15:58 59.66748 11.30078 1624 ft 116 kts 18°
2026-05-06 15:58 59.67537 11.30347 1614 ft 116 kts 359°
2026-05-06 15:58 59.68332 11.30210 1630 ft 113 kts 342°
2026-05-06 15:59 59.69060 11.29626 1643 ft 111 kts 328°
2026-05-06 15:59 59.69737 11.28917 1669 ft 109 kts 326°
2026-05-06 15:59 59.70401 11.28149 1665 ft 111 kts 323°
2026-05-06 15:59 59.71030 11.27325 1708 ft 108 kts 319°
2026-05-06 16:00 59.71625 11.26411 1726 ft 108 kts 315°
2026-05-06 16:00 59.72215 11.25481 1746 ft 108 kts 319°
2026-05-06 16:00 59.72865 11.24704 1754 ft 110 kts 327°
2026-05-06 16:00 59.73546 11.24006 1780 ft 110 kts 330°
2026-05-06 16:01 59.74305 11.23580 1766 ft 115 kts 345°
2026-05-06 16:01 59.75098 11.23401 1755 ft 116 kts 352°
2026-05-06 16:01 59.75914 11.23282 1778 ft 114 kts 351°
2026-05-06 16:01 59.76691 11.23114 1802 ft 113 kts 349°
2026-05-06 16:02 59.77481 11.22910 1827 ft 112 kts 347°
2026-05-06 16:02 59.78249 11.22683 1840 ft 113 kts 346°
2026-05-06 16:02 59.79018 11.22409 1864 ft 112 kts 344°
2026-05-06 16:02 59.79775 11.22056 1895 ft 111 kts 340°
2026-05-06 16:03 59.80515 11.21593 1911 ft 111 kts 335°
2026-05-06 16:03 59.81233 11.21047 1936 ft 110 kts 333°
2026-05-06 16:03 59.81948 11.20438 1914 ft 113 kts 332°
2026-05-06 16:03 59.82673 11.19787 1891 ft 115 kts 329°
2026-05-06 16:04 59.83374 11.19040 1903 ft 112 kts 326°
2026-05-06 16:04 59.84051 11.18298 1908 ft 111 kts 326°
2026-05-06 16:04 59.84743 11.17563 1890 ft 113 kts 328°
2026-05-06 16:04 59.85456 11.16875 1897 ft 112 kts 331°
2026-05-06 16:05 59.86183 11.16312 1888 ft 114 kts 335°
2026-05-06 16:05 59.86925 11.15791 1881 ft 114 kts 335°
2026-05-06 16:05 59.87684 11.15269 1875 ft 114 kts 336°
2026-05-06 16:05 59.88440 11.14807 1885 ft 113 kts 339°
2026-05-06 16:06 59.89175 11.14285 1873 ft 114 kts 334°
2026-05-06 16:06 59.89922 11.13685 1857 ft 115 kts 333°
2026-05-06 16:06 59.90655 11.13075 1862 ft 114 kts 332°
2026-05-06 16:06 59.91386 11.12448 1835 ft 116 kts 330°
2026-05-06 16:07 59.92124 11.11813 1845 ft 113 kts 331°
2026-05-06 16:07 59.92875 11.11202 1710 ft 118 kts 335°
2026-05-06 16:07 59.93628 11.10682 1512 ft 114 kts 337°
2026-05-06 16:07 59.94373 11.10216 1263 ft 106 kts 336°
2026-05-06 16:08 59.95010 11.09688 1045 ft 94 kts 324°
2026-05-06 16:08 59.95395 11.08850 911 ft 73 kts 293°
2026-05-06 16:08 59.95621 11.08047 854 ft 64 kts 291°
2026-05-06 16:08 59.95879 11.07261 809 ft 68 kts 294°
2026-05-06 16:09 59.96130 11.06467 707 ft 66 kts 303°
2026-05-06 16:09 59.96391 11.05654 572 ft 70 kts 296°
2026-05-06 16:09 59.96645 11.04874 386 ft 64 kts 299°
2026-05-06 16:09 59.96868 11.04175 361 ft 68 kts 301°
2026-05-06 16:10 59.97156 11.03302 512 ft 74 kts 297°
2026-05-06 16:10 59.97414 11.02433 713 ft 71 kts 292°
2026-05-06 16:10 59.97657 11.01574 915 ft 70 kts 289°
2026-05-06 16:10 59.97873 11.00701 1105 ft 70 kts 289°
2026-05-06 16:11 59.98087 10.99857 1304 ft 68 kts 288°
2026-05-06 16:11 59.98306 10.98961 1439 ft 71 kts 266°
2026-05-06 16:11 59.98066 10.98233 1600 ft 73 kts 214°
2026-05-06 16:11 59.97573 10.97686 1678 ft 86 kts 205°
2026-05-06 16:12 59.96979 10.97833 1753 ft 99 kts 131°
2026-05-06 16:12 59.96651 10.99146 1720 ft 111 kts 121°
2026-05-06 16:12 59.96307 11.00541 1723 ft 110 kts 121°
2026-05-06 16:12 59.95967 11.01904 1638 ft 110 kts 123°
2026-05-06 16:13 59.95565 11.03209 1525 ft 108 kts 131°
2026-05-06 16:13 59.95113 11.04417 1403 ft 106 kts 130°
2026-05-06 16:13 59.94681 11.05596 1261 ft 105 kts 124°
2026-05-06 16:13 59.94761 11.06970 1050 ft 108 kts 52°
2026-05-06 16:14 59.95290 11.07840 975 ft 95 kts
2026-05-06 16:14 59.95834 11.07345 779 ft 89 kts 298°
2026-05-06 16:14 59.96150 11.06395 656 ft 75 kts 298°
2026-05-06 16:14 59.96435 11.05517 518 ft 76 kts 298°
2026-05-06 16:15 59.96713 11.04660 368 ft 68 kts 300°
2026-05-06 16:15 59.96955 11.03913 377 ft 71 kts 301°
2026-05-06 16:15 59.97235 11.03056 560 ft 72 kts 300°
2026-05-06 16:15 59.97502 11.02290 794 ft 67 kts 296°
2026-05-06 16:16 59.97754 11.01527 1034 ft 61 kts 292°
2026-05-06 16:16 59.97955 11.00749 1197 ft 67 kts 287°
2026-05-06 16:16 59.98141 10.99906 1412 ft 64 kts 284°
2026-05-06 16:16 59.98098 10.99158 1606 ft 60 kts 214°
2026-05-06 16:17 59.97706 10.98683 1710 ft 70 kts 210°
2026-05-06 16:17 59.97229 10.98226 1774 ft 81 kts 208°
2026-05-06 16:17 59.96735 10.98560 1764 ft 101 kts 128°
2026-05-06 16:17 59.96391 10.99797 1748 ft 103 kts 123°
2026-05-06 16:18 59.96024 11.01045 1717 ft 104 kts 126°
2026-05-06 16:18 59.95639 11.02347 1666 ft 112 kts 123°
2026-05-06 16:18 59.95245 11.03650 1672 ft 108 kts 125°
2026-05-06 16:18 59.94856 11.04989 1621 ft 112 kts 125°
2026-05-06 16:19 59.94467 11.06315 1615 ft 112 kts 121°
2026-05-06 16:19 59.94478 11.07813 1542 ft 119 kts 57°
2026-05-06 16:19 59.95133 11.08803 1366 ft 121 kts 13°
2026-05-06 16:19 59.95740 11.08146 1033 ft 104 kts 283°
2026-05-06 16:20 59.96010 11.06852 713 ft 98 kts 302°
2026-05-06 16:20 59.96361 11.05795 531 ft 83 kts 310°
2026-05-06 16:20 59.96622 11.04943 391 ft 66 kts 300°
2026-05-06 16:20 59.96802 11.04391 359 ft 14 kts 316°
2026-05-06 16:21 59.96792 11.04413 359 ft 14 kts 123°
2026-05-06 16:21 59.96802 11.04583 359 ft 15 kts 54°
2026-05-06 16:21 59.96787 11.04768 363 ft 15 kts 127°
2026-05-06 16:21 59.96738 11.04862 363 ft 2 kts 52°
2026-05-06 16:22 59.96746 11.04861 363 ft 0 kts 328°
2026-05-06 16:31 59.96762 11.04830 363 ft 7 kts 316°
2026-05-06 16:31 59.96805 11.04740 363 ft 6 kts 334°
2026-05-06 16:31 59.96816 11.04742 363 ft 0 kts 50°
2026-05-06 16:33 59.96813 11.04752 363 ft 6 kts 147°
2026-05-06 16:33 59.96779 11.04793 363 ft 0 kts 124°
2026-05-06 16:35 59.96761 11.04821 363 ft 6 kts 178°
2026-05-06 16:35 59.96748 11.04797 363 ft 0 kts 274°
2026-05-06 16:36 59.96750 11.04789 362 ft 0 kts 308°
2026-05-06 16:36 59.96750 11.04788 363 ft 0 kts 308°
2026-05-06 16:37 59.96750 11.04789 362 ft 0 kts 308°
2026-05-06 16:37 59.96750 11.04788 362 ft 0 kts 308°
2026-05-06 16:37 59.96750 11.04789 362 ft 0 kts 308°
2026-05-06 16:37 59.96753 11.04797 362 ft 3 kts 83°
2026-05-06 16:38 59.96742 11.04837 362 ft 0 kts 137°
2026-05-06 16:38 59.96749 11.04816 362 ft 0 kts 222°
2026-05-06 16:38 59.96753 11.04809 362 ft 5 kts 241°
2026-05-06 16:38 59.96746 11.04785 362 ft 3 kts 244°
2026-05-06 16:39 59.96720 11.04688 362 ft 7 kts 242°
2026-05-06 16:39 59.96719 11.04641 362 ft 0 kts 302°
2026-05-06 16:40 59.96707 11.04664 362 ft 9 kts 120°
2026-05-06 16:41 59.96655 11.04832 362 ft 12 kts 120°
2026-05-06 16:41 59.96615 11.04950 363 ft 9 kts 127°
2026-05-06 16:41 59.96568 11.05070 365 ft 12 kts 127°
2026-05-06 16:41 59.96575 11.05071 365 ft 11 kts 301°
2026-05-06 16:42 59.96598 11.04993 364 ft 1 kts 296°
2026-05-06 16:42 59.96599 11.04988 364 ft 0 kts 299°
2026-05-06 16:42 59.96604 11.04972 364 ft 13 kts 298°
2026-05-06 16:43 59.96766 11.04480 371 ft 62 kts 301°
2026-05-06 16:43 59.97006 11.03740 541 ft 65 kts 299°
2026-05-06 16:43 59.97263 11.02949 728 ft 66 kts 301°
2026-05-06 16:43 59.97525 11.02181 935 ft 63 kts 288°
2026-05-06 16:44 59.97669 11.01332 1099 ft 65 kts 273°
2026-05-06 16:44 59.97324 11.00916 1179 ft 77 kts 177°
2026-05-06 16:44 59.96737 11.01008 1271 ft 90 kts 176°
2026-05-06 16:44 59.96127 11.01207 1455 ft 88 kts 169°
2026-05-06 16:45 59.95553 11.01558 1670 ft 82 kts 162°
2026-05-06 16:45 59.94930 11.01649 1661 ft 99 kts 189°
2026-05-06 16:45 59.94275 11.01507 1823 ft 96 kts 189°
2026-05-06 16:45 59.93579 11.01317 1881 ft 103 kts 191°
2026-05-06 16:46 59.92877 11.01008 1987 ft 101 kts 191°
2026-05-06 16:46 59.92192 11.00680 2087 ft 100 kts 191°
2026-05-06 16:46 59.91569 11.00324 2299 ft 86 kts 197°
2026-05-06 16:46 59.90917 10.99937 2298 ft 102 kts 199°
2026-05-06 16:47 59.90210 10.99477 2314 ft 108 kts 200°
2026-05-06 16:47 59.89505 10.99009 2397 ft 106 kts 201°
2026-05-06 16:47 59.88808 10.98431 2416 ft 110 kts 205°
2026-05-06 16:47 59.88163 10.97697 2482 ft 107 kts 212°
2026-05-06 16:48 59.87547 10.96831 2512 ft 108 kts 217°
2026-05-06 16:48 59.86928 10.96007 2572 ft 108 kts 213°
2026-05-06 16:48 59.86272 10.95177 2491 ft 113 kts 213°
2026-05-06 16:48 59.85510 10.94987 2459 ft 116 kts 186°
2026-05-06 16:49 59.84716 10.94843 2430 ft 113 kts 188°
2026-05-06 16:49 59.83971 10.94540 2400 ft 108 kts 202°
2026-05-06 16:49 59.83239 10.94150 2327 ft 108 kts 195°
2026-05-06 16:49 59.82523 10.93792 2278 ft 108 kts 198°
2026-05-06 16:50 59.81798 10.93376 2224 ft 108 kts 197°
2026-05-06 16:50 59.81065 10.92982 2163 ft 110 kts 198°
2026-05-06 16:50 59.80309 10.92656 2158 ft 109 kts 189°
2026-05-06 16:50 59.79562 10.92506 2138 ft 110 kts 190°
2026-05-06 16:51 59.78777 10.92383 2019 ft 117 kts 183°
2026-05-06 16:51 59.78009 10.92378 2061 ft 108 kts 184°
2026-05-06 16:51 59.77343 10.92199 1968 ft 94 kts 190°
2026-05-06 16:51 59.76754 10.91645 1898 ft 100 kts 214°
2026-05-06 16:52 59.76181 10.90953 1734 ft 92 kts 210°
2026-05-06 16:52 59.75651 10.90437 1600 ft 74 kts 208°
2026-05-06 16:52 59.75217 10.89997 1447 ft 63 kts 210°
2026-05-06 16:52 59.74867 10.89686 1411 ft 55 kts 196°
2026-05-06 16:53 59.74493 10.89481 1399 ft 55 kts 192°
2026-05-06 16:53 59.74110 10.89278 1337 ft 57 kts 197°
2026-05-06 16:53 59.73728 10.89075 1261 ft 57 kts 194°
2026-05-06 16:53 59.73328 10.88933 1167 ft 60 kts 189°
2026-05-06 16:54 59.72904 10.88833 1129 ft 61 kts 184°
2026-05-06 16:54 59.72503 10.88721 1016 ft 54 kts 194°
2026-05-06 16:54 59.72141 10.88586 858 ft 53 kts 189°
2026-05-06 16:54 59.71756 10.88483 721 ft 56 kts 187°
2026-05-06 16:55 59.71356 10.88369 601 ft 59 kts 187°
2026-05-06 16:55 59.70961 10.88250 421 ft 58 kts 190°
2026-05-06 16:55 59.70669 10.88160 385 ft 18 kts 188°
2026-05-06 16:55 59.70636 10.88148 383 ft 6 kts 32°
2026-05-06 16:56 59.70773 10.88190 387 ft 27 kts
2026-05-06 16:56 59.70883 10.88296 389 ft 6 kts 85°
2026-05-06 16:56 59.70901 10.88337 390 ft 9 kts 322°
2026-05-06 16:56 59.70908 10.88320 390 ft 0 kts 297°
2026-05-06 16:58 59.70930 10.88261 389 ft 11 kts 317°
2026-05-06 16:58 59.70926 10.88229 388 ft 7 kts 183°
2026-05-06 16:58 59.70681 10.88163 396 ft 56 kts 185°
2026-05-06 16:59 59.70351 10.88107 536 ft 58 kts 184°
2026-05-06 16:59 59.69998 10.87629 632 ft 68 kts 234°
2026-05-06 16:59 59.69936 10.86631 769 ft 80 kts 278°
2026-05-06 16:59 59.70186 10.85593 918 ft 89 kts 294°
2026-05-06 17:00 59.70480 10.84495 1072 ft 93 kts 292°
2026-05-06 17:00 59.70762 10.83310 1221 ft 96 kts 289°
2026-05-06 17:00 59.71051 10.82088 1310 ft 101 kts 296°
2026-05-06 17:00 59.71511 10.81024 1452 ft 102 kts 311°
2026-05-06 17:01 59.72008 10.80028 1600 ft 101 kts 309°
2026-05-06 17:01 59.72508 10.79054 1750 ft 101 kts 313°
2026-05-06 17:01 59.73038 10.78158 1882 ft 101 kts 315°
2026-05-06 17:01 59.73567 10.77257 2017 ft 100 kts 313°
2026-05-06 17:02 59.74100 10.76357 2148 ft 101 kts 314°
2026-05-06 17:02 59.74631 10.75429 2281 ft 101 kts 314°
2026-05-06 17:02 59.75164 10.74528 2404 ft 102 kts 317°
2026-05-06 17:02 59.75756 10.73723 2525 ft 103 kts 322°
2026-05-06 17:03 59.76360 10.72953 2665 ft 102 kts 322°
2026-05-06 17:03 59.76960 10.72171 2743 ft 105 kts 322°
2026-05-06 17:03 59.77599 10.71447 2839 ft 107 kts 330°
2026-05-06 17:03 59.78315 10.70958 2885 ft 112 kts 340°
2026-05-06 17:04 59.79095 10.70711 2898 ft 115 kts 350°
2026-05-06 17:04 59.79898 10.70656 2904 ft 115 kts 355°